星链-31819 (STARLINK-31819 )

导读

STARLINK-31819是美国SpaceX星链星座中的一颗卫星,于2024年5月13日发射升空,星链计划旨在构建覆盖全球的卫星互联网星座,为全球偏远地区、海上用户等提供高速低延迟的宽带网络服务。该卫星承担着扩展星链网络覆盖范围、提升服务容量的任务,助力SpaceX推进全球卫星互联网布局。

Basic Information
目录编号:
59738
目录名称:
STARLINK-31819
国际标识:
2024-090J
轨道中心:
EARTH
卫星名称:
星链-31819
卫星全名:
星链-31819 (STARLINK-31819 )
卫星状态:
在轨 (已飞行844 天)
发射日期:
2024-05-13 UTC
国别 :
美国 (US)
星等 :
--
Orbit Information
数据来源 国际轨道数据 AOE轨道数据
星历时间 2026-09-04T10:06:32+0800
10小时前
查看轨道信息
2026-08-31T08:00:00+0800
4天前
查看轨道信息
半长轴 6861.199km 6861.163km
偏心率 0.0001415 0.0003172
轨道倾角 43.003° 43.006°
近地点辐角 272.494° 256.631°
升交点赤经 256.011° 279.087°
平近点角 87.575° 276.748°
近地点 482.091km 480.849km
远地点 484.033km 485.203km
周期 94.267分钟 94.266分钟
每日圈数 15.275758 15.275878
Detailed Information
固有亮度:
5
最大亮度:
1.5
卫星平台:
Starlink v2.0 mini
覆盖范围:
全球
运营商:
太空探索技术公司
运营商所在国:
美国
制造商(研发单位):
太空探索技术公司
制造商所在国:
美国
使用方式:
暂无
Satellite Introduction
星链(Starlink)计划是由太空探索技术公司(SpaceX)提出的一个巨型低轨卫星互联网星座项目,计划在2019年至2024年间在太空搭建由约1.2万颗卫星组成的“星链”网络,其中1584颗将部署在地球上空550千米处的近地轨道,并从2020年开始工作。该卫星仍在工作。
2D Orbit Map
3D Orbit Map
Orbit Altitude Analysis Chart
Orbit Inclination Analysis Chart
Orbit Comprehensive Analysis Chart
View Comprehensive Chart
Conjunction Data List
Event ID Objects TCA Miss Dist (km) Collision Risk Probability Collision Risk Index (CRI) Action
CDM_260905-210905-973805-992521
2026-09-05T
21:09:43+0000
0.543 km
远距离
1.322747E-4 高风险 0.77
CDM_260905-193505-973805-992521
2026-09-05T
19:35:34+0000
0.979 km
远距离
2.201666E-5 中风险 0.62
CDM_260903-023005-973806-549122
OBJECT-D (65491)
2026-09-03T
02:30:49+0000
1.221 km
极远距离
1.324926E-5 中风险 0.57
CDM_260904-031205-973806-049822
2026-09-04T
03:12:25+0000
1.707 km
极远距离
3.480172E-6 低风险 0.46
CDM_260905-224305-973805-992521
2026-09-05T
22:43:53+0000
1.782 km
极远距离
3.029182E-6 低风险 0.45
CDM_260831-014005-973806-538421
2026-08-31T
01:40:11+0000
2.226 km
极远距离
2.168229E-6 低风险 0.42
CDM_260905-180105-973805-992521
2026-09-05T
18:01:24+0000
2.244 km
极远距离
1.70816E-6 低风险 0.4